Regional Weather Roundup
Issued by NWS

Home | Current Version | Previous Version | Graphics & Text | Print | Product List | Glossary On
Versions: 1 2 3 4 5 6 7 8 9 10 11 12 13 14 15 16 17 18 19 20 21 22 23 24 25 26 27 28 29 30 31 32 33 34 35 36 37 38 39 40 41 42 43 44 45 46 47 48 49 50
000
ASUS43 KMPX 161410
RWRMN
WEATHER ROUNDUP FOR MINNESOTA
NATIONAL WEATHER SERVICE TWIN CITIES/CHANHASSEN MN
900 AM CDT WED AUG 16 2017


NOTE: "FAIR" INDICATES FEW OR NO CLOUDS BELOW 12,000 FEET WITH NO
SIGNIFICANT WEATHER AND/OR OBSTRUCTIONS TO VISIBILITY. N/A MEANS
CURRENT SKY AND/OR WEATHER CONDITIONS ARE NOT AVAILABLE.

MNZ060>063-068>070-161500-
   Twin Cities Metro

CITY           SKY/WX    TMP DP  RH WIND       PRES   REMARKS
TWIN CITIES    LGT RAIN  67  64  90 SE15      29.90F
ST PAUL        LGT RAIN  66  66 100 SE12      29.92F FOG
CRYSTAL        CLOUDY    67  62  84 SE8       29.90F
BLAINE         CLOUDY    66  66 100 SE13G20   29.91F
LAKEVILLE      LGT RAIN  63  63 100 SE9       29.91F
EDEN PRAIRIE   CLOUDY    67  65  93 SE12      29.91S
SOUTH ST PAUL  RAIN      65  65  99 SE8       29.92F
LAKE ELMO      LGT RAIN  64  64 100 E5        29.95S
$$
MNZ001>005-007-008-013>017-022>024-027-028-161500-
   Northwest Minnesota

CITY           SKY/WX    TMP DP  RH WIND       PRES   REMARKS
BEMIDJI        CLOUDY    63  58  85 SE12      29.91F
HALLOCK        DRIZZLE   64  63  94 E5        29.89S
ROSEAU           N/A     64  61  88 CALM      29.92F
WARROAD        CLOUDY    64  61  88 SE5       29.93F
THIEF RVR FALL CLOUDY    63  61  94 E6        29.89S
CROOKSTON      CLOUDY    63  63 100 E3        29.87S
FOSSTON        CLOUDY    63  61  94 SE8       29.88S
DETROIT LAKES  CLOUDY    63  61  94 SE13      29.88S FOG
MOORHEAD       CLOUDY    64  63  94 SE5       29.85S
PARK RAPIDS    LGT RAIN  63  61  93 SE8       29.90S FOG
MAHNOMEN       CLOUDY    63  61  92 SE12G17   29.87S
$$
MNZ006-009>011-018-025>026-161500-
   North Central Minnesota

CITY           SKY/WX    TMP DP  RH WIND       PRES   REMARKS
BAUDETTE       LGT RAIN  62  58  86 SE8       29.93F
FLAG ISLAND    PTSUNNY   68  63  83 CALM      29.92F
INTL FALLS     CLOUDY    62  52  69 SE5       29.97F
WASKISH        CLOUDY    61  57  88 E7        29.93F
BIG FORK       CLOUDY    64  55  72 SE6       29.95F
LONGVILLE      DRIZZLE   61  57  88 CALM      29.92F
GRAND RAPIDS   CLOUDY    63  56  78 SE7       29.97F
CRANE LAKE     CLOUDY    61  48  63 CALM      30.00F
ORR            CLOUDY    63  46  55 SE5       29.96F
COOK             N/A     64  52  63 SE5       29.98F
WALKER         CLOUDY    61  58  90 E6        29.91F
$$
MNZ012-019>021-037-161500-
   Northeast Minnesota

CITY           SKY/WX    TMP DP  RH WIND       PRES   REMARKS
DULUTH         PTSUNNY   61  57  87 E12       29.99F
ELY            MOSUNNY   63  48  59 SE9       30.00F
HIBBING        CLOUDY    61  54  77 SE10      29.97F
EVELETH        PTSUNNY   63  52  67 E5        30.00S
DULUTH HARBOR  MOSUNNY   64  61  88 E18       29.99S
TWO HARBORS    PTSUNNY   64  61  88 E10       29.99F
SILVER BAY     PTSUNNY   63  57  82 NE8       30.00F
GRAND MARAIS     N/A     61  56  83 E9        30.03F
G MARAIS ARPRT CLOUDY    55  52  88 NE5       30.06F
$$
MNZ029>031-032-039>041-046>048-054>057-064-161500-
   West Central Minnesota

CITY           SKY/WX    TMP DP  RH WIND       PRES   REMARKS
FERGUS FALLS   CLOUDY    64  64 100 SE8       29.85F FOG
WHEATON        CLOUDY    66  63  88 SE8       29.85F
MORRIS         CLOUDY    66  64  94 SE8       29.85S FOG
ALEXANDRIA     CLOUDY    65  64  97 SE8       29.89S FOG
ELBOW LAKE     CLOUDY    64  64  99 SE7       29.86S FOG
WADENA         CLOUDY    63  63 100 SE10      29.88F FOG
GLENWOOD       CLOUDY    64  64 100 SE7       29.88F FOG
APPLETON       CLOUDY    66  64  94 SE5       29.84S FOG
BENSON         CLOUDY    66  64  94 S5        29.87S
ORTONVILLE     CLOUDY    66  64  94 MISG      29.84S FOG
MADISON        CLOUDY    70  70 100 SE5       29.84F FOG
WILLMAR        CLOUDY    66  64  94 SE9       29.89R
$$
MNZ033>034-036-042>043-049>051-058-059-161500-
   Central Minnesota

CITY           SKY/WX    TMP DP  RH WIND       PRES   REMARKS
ST CLOUD       CLOUDY    64  64 100 SE9       29.91S
SAUK CENTRE    CLOUDY    64  64  97 E7        29.89S
PAYNESVILLE    CLOUDY    66  64  93 SE8       29.90R
AITKIN         CLOUDY    63  57  82 E6        29.92S
PINE RIVER     CLOUDY    59  55  88 SE6       29.95S FOG
BRAINERD       LGT RAIN  62  61  96 SE7       29.92S FOG
STAPLES        CLOUDY    61  61 100 SE5       29.90F FOG
LONG PRAIRIE   CLOUDY    63  61  94 E6        29.90S FOG
LITTLE FALLS   CLOUDY    63  59  88 E7        29.91S FOG
LITCHFIELD     CLOUDY    66  64  94 SE9       29.90S
BUFFALO        CLOUDY    66  62  89 SE6       29.91F
MAPLE LAKE     CLOUDY    67  65  93 SE7       29.91S
HUTCHINSON     CLOUDY    66  65  94 E9        29.91R
$$
MNZ037-044-045-052-053-161500-
   East Central Minnesota

CITY           SKY/WX    TMP DP  RH WIND       PRES   REMARKS
PRINCETON      CLOUDY    64  63  94 E8        29.92S
MORA           LGT RAIN  63  59  88 SE5       29.96S
RUSH CITY      RAIN      64  60  88 CALM      29.94S
MOOSE LAKE     CLOUDY    63  55  77 CALM      29.95S
HINCKLEY       CLOUDY    63  61  94 E7        29.95S
CLOQUET        CLOUDY    63  57  82 E10       29.98S
MCGREGOR       CLOUDY    63  57  82 E8        29.95F
$$
MNZ071>073-080-081-089-090-097-098-161500-
   Southwest Minnesota

CITY           SKY/WX    TMP DP  RH WIND       PRES   REMARKS
MONTEVIDEO     CLOUDY    66  66 100 S6        29.85F
GRANITE FALLS  CLOUDY    69  67  94 SE8       29.87S FOG
CANBY          RAIN      67  66  96 CALM      29.86R
MARSHALL       CLOUDY    66  66 100 SE7       29.85F
REDWOOD FALLS  CLOUDY    67  64  90 SE7       29.86S FOG
OLIVIA         CLOUDY    64  63  94 SE6       29.86F FOG
PIPESTONE      RAIN      66  64  94 S5        29.87R
WINDOM         CLOUDY    66  64  94 SE6       29.87F FOG
WORTHINGTON    CLOUDY    67  66  97 E7        29.87S FOG
JACKSON        FOG       66  66 100 CALM      29.88S VSB 1
TRACY          CLOUDY    68  68  98 SE6       29.86F FOG
SLAYTON        FOG       65  61  86 SE6       29.88S VSB 1
$$
MNZ065>067-074>077-082>085-091>093-161500-
   South Central Minnesota

CITY           SKY/WX    TMP DP  RH WIND       PRES   REMARKS
MANKATO        CLOUDY    67  64  90 SE14      29.89F
NEW ULM        CLOUDY    66  64  94 SE6       29.87F FOG
ST JAMES       CLOUDY    66  64  94 E9        29.88F FOG
FAIRMONT       CLOUDY    66  64  94 SE7       29.88F FOG
GLENCOE        CLOUDY    67  66  98 SE9       29.90R
FARIBAULT      CLOUDY    64  64 100 NE3       29.93S FOG
OWATONNA       MOSUNNY   68  64  88 SE6       29.92S
WASECA         CLOUDY    64  61  88 E3        29.93S
ALBERT LEA     CLOUDY    70  68  94 SE10      29.91F FOG
$$
MNZ078>079-086>088-094>096-161500-
   Southeast Minnesota

CITY           SKY/WX    TMP DP  RH WIND       PRES   REMARKS
ROCHESTER      SUNNY     67  62  84 SE14      29.94F
RED WING       CLOUDY    66  63  88 E7        29.93F
DODGE CENTER   CLOUDY    66  61  82 SE12G18   29.93F
WINONA         CLOUDY    70  63  78 SE7       29.96S
AUSTIN         CLOUDY    66  63  88 SE10      29.92F
PRESTON        MOSUNNY   65  58  79 SE9       29.95F
$$
ABBREVIATIONS USED IN REMARKS
   TC - TEMPERATURES IN CELSIUS
  WCI - WIND CHILL INDEX
   HX - HEAT INDEX
  VSB - VISIBILITY
$$




USA.gov is the U.S. government's official web portal to all federal, state and local government web resources and services.